Regional Weather Roundup
Issued by NWS Upton, NY

Current Version | Previous Version | Graphics & Text | Print | Product List | Glossary Off
Versions: 1 2 3 4 5 6 7 8 9 10 11 12 13 14 15 16 17 18 19 20 21 22 23 24 25 26 27

000
ASUS41 KOKX 012204
RWROKX

REGIONAL WEATHER ROUNDUP
NATIONAL WEATHER SERVICE NEW YORK NY
600 PM EDT SUN MAY 01 2016

NOTE: "FAIR" INDICATES FEW OR NO CLOUDS BELOW 12,000 FEET WITH NO
SIGNIFICANT WEATHER AND/OR OBSTRUCTIONS TO VISIBILITY.

NYZ071-072-176-178-NJZ106-104-012300-
NEW YORK CITY METRO AREA


CITY           SKY/WX    TMP DP  RH WIND       PRES   REMARKS
CENTRAL PARK   LGT RAIN  48  45  89 VRB6      30.13F FOG
LAGUARDIA APRT LGT RAIN  49  44  83 E9        30.11F
KENNEDY INTL   DRIZZLE   48  46  93 E10       30.12F FOG
NEWARK/LIBERTY LGT RAIN  44  44 100 E6        30.11F FOG
BRNX BOT. GARD   N/A     46  45  93 E3        30.13F
TETERBORO      LGT RAIN  48  44  86 E5        30.10F FOG
$$

NYZ177-179-078>081-012300-
LONG ISLAND NEW YORK

CITY           SKY/WX    TMP DP  RH WIND       PRES   REMARKS
FARMINGDALE    CLOUDY    46  43  89 E8        30.13S
ISLIP          CLOUDY    45  42  89 NE9       30.13F FOG
SHIRLEY        LGT RAIN  45  42  89 NE7       30.15F
RIVERHEAD        N/A     43  41  93 CALM      30.15F
WESTHAMPTON    CLOUDY    43  40  89 NE9       30.16F
EAST HAMPTON   CLOUDY    41  38  87 E5        30.17S
MONTAUK POINT    N/A     42  39  89 E6        30.19F
$$

NYZ052-065-067-012300-
HUDSON VALLEY

CITY           SKY/WX    TMP DP  RH WIND       PRES   REMARKS
WHITE PLAINS   LGT RAIN  45  43  93 E9        30.12S FOG
NEWBURGH       LGT RAIN  45  45 100 SE8       30.11F FOG
MONTGOMERY     LGT RAIN  47  44  90 E5        30.10F
POUGHKEEPSIE   LGT RAIN  49  45  86 E5        30.11F
ALBANY         CLOUDY    46  39  76 SE9G16    30.11F
$$

NJZ001-105-106-008-010-013-015-019>022-104-012300-
NEW JERSEY

CITY           SKY/WX    TMP DP  RH WIND       PRES   REMARKS
NEWARK/LIBERTY LGT RAIN  44  44 100 E6        30.11F FOG
TETERBORO      LGT RAIN  48  44  86 E5        30.10F FOG
CALDWELL       LGT RAIN  48  44  86 E6        30.11F FOG
MORRISTOWN     LGT RAIN  48  46  93 E5        30.11F FOG
SOMERVILLE     CLOUDY    49  46  90 E5        30.08S FOG
SUSSEX         LGT RAIN  47  44  90 CALM      30.10S FOG
ANDOVER          N/A     47  44  90 CALM      30.09S
TRENTON        CLOUDY    50  47  89 E6        30.07F
MILLVILLE      CLOUDY    53  52  96 E6        30.04F FOG
ATLANTIC CITY  CLOUDY    52  51  97 NE7       30.05F
WRIGHTSTOWN    CLOUDY    50  50  97 E8        30.05S FOG
TOMS RIVER     CLOUDY    50  46  87 E7        30.08F
BELMAR         LGT RAIN  48  47  96 E9        30.09F
$$

PAZ047>061-062-071-012300-
EASTERN PENNSYLVANIA

CITY           SKY/WX    TMP DP  RH WIND       PRES   REMARKS
PHILADELPHIA   LGT RAIN  53  49  86 NE6       30.07S FOG
ALLENTOWN      CLOUDY    51  47  86 E6        30.07S FOG
SCRANTON       CLOUDY    49  43  80 VRB3      30.04R
$$

CTZ002-004>006-009-010-012-RIZ004-006-007-MAZ004-011-015-012300-
SOUTHERN NEW ENGLAND
 IN CT

CITY           SKY/WX    TMP DP  RH WIND       PRES   REMARKS
BRADLEY INTL   LGT RAIN  44  38  79 CALM      30.17S
HARTFORD       LGT RAIN  45  38  76 S8        30.18S
DANBURY        LGT RAIN  43  40  89 E9        30.15S FOG
WTRBRY/OXFORD  CLOUDY    41  37  87 E8        30.16F FOG
BRIDGEPORT     LGT RAIN  45  41  86 E15       30.15F FOG
MERIDEN        LGT RAIN  44  39  82 E3        30.18S
NEW HAVEN      CLOUDY    43  39  86 E12       30.17F FOG
CHESTER        LGT RAIN  39  37  93 SE6       30.17S VSB 1   WCI  35
GROTON         LGT RAIN  42  42 100 E6        30.19S FOG
WILLIMANTIC    LGT RAIN  44  37  76 S3        30.19S

 IN RI

CITY           SKY/WX    TMP DP  RH WIND       PRES   REMARKS
PROVIDENCE     LGT RAIN  44  35  70 E7        30.20F
BLOCK ISLAND   LGT RAIN  42  40  92 E8        30.19F FOG
WESTERLY       LGT RAIN  42  38  85 E6        30.20S FOG

 IN MA

CITY           SKY/WX    TMP DP  RH WIND       PRES   REMARKS
BOSTON         CLOUDY    50  33  52 E15       30.19F
WORCESTER      LGT RAIN  42  32  67 SE10      30.16F
WESTFIELD      LGT RAIN  44  39  82 S5        30.17S
PROVINCETOWN   LGT RAIN  47  41  80 SE8       30.22F
NANTUCKET      LGT RAIN  48  44  86 E7        30.20S
$$

ANZ330-335-338-340-345-350-353-355-012300-
COASTAL MARINE OBSERVATIONS


STATION/POSITION TIME  SKY/WX   TEMP    WIND        PRES    VSBY  WAVE
                                AIR SEA DIR/SP/G                  HT/PER
                 (UTC)          (F)     (DEG/KT/KT) (MB)    (MI)  (FT/S)
NY HARB ENTRANCE 2050            47 51   80/ 16/ 19 1018.8          4/ 8
20S FIRE ISLAND  2050            47 48   80/ 17/ 19 1019.1          4/ 8
GREAT SOUTH BAY  2100            46 56   80/ 14/ 17   N/A
23 SSW MONTAUK P 2150            44 47   70/ 16/ 17 1020.4          5/ 9
15 E BARNEGAT LI NOT AVBL
HUDSON CANYON    2050            51 49              1018.1          5/ 9
KINGS POINT      2100            48 53              1019.8
EXECUTION ROCKS  NOT AVBL
CENTRAL LI SOUND 2100            44     100/ 14/ 16   N/A           2/ 2
EASTERN LI SOUND 2100            44 48   80/  8/ 12   N/A
ROBBINS REEF     2112            47     100/  7/ 11 1019.2
$$


>>>>>>>>>>>>>>>>>>>>>>>>>>>> KEY <<<<<<<<<<<<<<<<<<<<<<<<<<<
>                                                          <
>     SKY/WX - SKY CONDITION/PRESENT WEATHER               <
>     TMP    - TEMPERATURE IN FAHRENHEIT                   <
>     DP     - DEWPOINT IN FAHRENHEIT                      <
>     RH     - RELATIVE HUMIDITY IN PERCENT                <
>     WIND   - DIRECTION AND SPEED IN MPH                  <
>     PRES   - MEAN SEA LEVEL PRESSURE IN INCHES OF HG     <
>     WCI    - WIND CHILL INDEX                            <
>     VSB    - VISIBILITY IN MILES                         <
>     HX     - HEAT INDEX                                  <
>     TC     - TEMPERATURE IN CELSIUS                      <
>     VRB    - VARIABLE WIND DIRECTION                     <
>                                                          <
>>>>>>>>>>>>>>>>>>>>>>>>>>>> KEY <<<<<<<<<<<<<<<<<<<<<<<<<<<






USA.gov is the U.S. government's official web portal to all federal, state and local government web resources and services.